Location: Home
(42.5358°N, 72.7383°W)
Time: 05:41:14
(UTC-05:00)

Explorer 11/Cluster Stage 4 - Pass Details

Date: 30 November 2021
Orbit: 467 x 1255 km, 28.8° (Epoch: 25 January)

Event Time Altitude Azimuth Distance (km) Brightness Sun altitude
Rises 04:11:37 0° 237° (WSW) 3,921 - -30.4°
Reaches altitude 10° 04:14:43 10° 226° (SW) 3,057 - -29.9°
Exits shadow 04:18:22 23° 201° (SSW) 2,309 8.7 -29.2°
Maximum altitude 04:21:04 28° 171° (S) 2,128 8.8 -28.7°
Drops below altitude 10° 04:27:44 10° 117° (ESE) 3,224 10.5 -27.5°
Sets 04:31:06 0° 106° (ESE) 4,169 11.5 -26.9°
